FENGYUN 3E

Last updated on Thu Oct 30 2025 00:02:23 GMT+0000 (Coordinated Universal Time)

1 49008U 21062A 25302.42019874 .00000037 00000+0 37988-4 0 9997 2 49008 98.7483 303.4648 0002402 54.9147 305.2255 14.19870906223833
UTC large
Height (km)
Speed (km/s)
/
Latitude / Longitude
Inclination (degrees)
Orbital Period (minutes)
Azimuth
Elevation
Range (km)
Doppler Factor

Next 0 passes for location: London (51.5072 / 0.1276)

Sorry there are no passes over London.